Location: Christianberg
(48.9086°N, 14.0209°E)
Time: 21:51:08
(UTC+00:00)

SL-4 R/B - Pass Details

Date: 20 June 2021
Orbit: 428 x 662 km, 51.6° (Epoch: 04 August)

Event Time Altitude Azimuth Distance (km) Brightness Sun altitude
Rises 01:21:17 0° 285° (WNW) 2,574 5.3 -11.6°
Reaches altitude 10° 01:23:33 10° 289° (WNW) 1,653 4.3 -11.4°
Maximum altitude 01:27:13 62° 10° (N) 520 2.2 -11.0°
Drops below altitude 10° 01:30:41 10° 93° (E) 1,559 4.8 -10.7°
Sets 01:32:46 0° 97° (E) 2,409 5.7 -10.5°
